[[{"header":{"parameterUnit":"m.s-1","parameterCategory":1,"la1":30.2991,"la2":30.254,"lo1":-89.0895,"lo2":-89.0444,"dy":0.0017,"dx":0.0017,"nx":28,"ny":28,"refTime":"2024-12-05T03:00:00:Z","depth":0,"parameterNumber":2,"parameterNumberName":"U-component_of_WINDS"},"data":[0,0,0,0,0,0,0,0,0,0,0,0,0,0,0,0,0,0,0,0,0,0,0,0,0,0,0,0,0,0,0,0,0,0,0,0,0,0,0,0,0,0,0,0,0,0,0,0,0,0,0,0,0,0,0,0,0,0,-1.0845,-1.0844,0,-1.0744,-1.0743,-1.0742,-1.0712,-1.0712,-1.0713,-1.0713,-1.0604,-1.0601,-1.0598,0,0,0,0,0,0,0,0,0,0,0,0,0,-1.1006,-1.1003,-1.0845,-1.0844,-1.0843,-1.0744,-1.0743,-1.0742,-1.0711,-1.0712,-1.0713,-1.0713,-1.0606,-1.0602,-1.0597,0,0,0,0,0,0,0,0,0,0,0,0,0,-1.0924,-1.1002,-1.0845,-1.0816,-1.0812,-1.0745,-1.0743,-1.0741,-1.0711,-1.0712,-1.0713,-1.0714,-1.0607,-1.0602,-1.0597,-1.055,0,0,-1.0581,-1.0579,0,0,0,0,0,0,0,0,-1.0928,-1.0918,-1.0822,-1.0818,-1.0814,-1.0741,-1.076,-1.0677,-1.0711,-1.0749,-1.0713,-1.0714,-1.0649,-1.064,-1.062,-1.0545,-1.054,-1.0581,-1.0578,-1.0576,-1.0574,0,0,0,0,0,0,0,-1.0934,-1.0922,-1.0805,-1.082,-1.0815,-1.0806,-1.0795,-1.0744,-1.0696,-1.0746,-1.0744,-1.0733,-1.0647,-1.0625,-1.0617,-1.0538,-1.0581,-1.0577,-1.0573,-1.0571,-1.0417,-1.0415,0,0,0,0,0,0,-1.0946,-1.0927,-1.0808,-1.0802,-1.0874,-1.0802,-1.079,-1.0764,-1.0696,-1.0687,-1.0732,-1.0732,-1.0633,-1.0623,-1.0613,-1.0551,-1.0576,-1.0571,-1.0568,-1.0418,-1.0416,-1.0415,0,0,0,0,0,0,-1.0949,-1.0935,-1.0812,-1.0864,-1.0847,-1.0799,-1.0769,-1.0761,-1.0739,-1.0686,-1.0676,-1.0718,-1.0633,-1.062,-1.0565,-1.0547,-1.0569,-1.0564,-1.0419,-1.0417,-1.0416,-1.0429,0,0,0,0,0,0,-1.0954,-1.0937,-1.092,-1.0864,-1.0845,-1.0768,-1.0768,-1.0759,-1.0731,-1.0729,-1.067,-1.0661,-1.0633,-1.0573,-1.056,-1.054,-1.056,-1.042,-1.0418,-1.0416,-1.043,-1.0428,-1.0426,0,0,0,0,0,-1.096,-1.0927,-1.0919,-1.0905,-1.0823,-1.0767,-1.0756,-1.0726,-1.073,-1.0711,-1.0676,-1.0663,-1.0552,-1.0568,-1.0553,-1.0531,-1.0421,-1.0419,-1.0416,-1.0431,-1.0428,-1.0426,0,0,0,0,0,0,-1.0981,-1.0919,-1.091,-1.0858,-1.0818,-1.0763,-1.0738,-1.0725,-1.0682,-1.0682,-1.0644,-1.0631,-1.0578,-1.0549,-1.0569,-1.0481,-1.0486,-1.048,-1.0502,-1.0499,-1.0497,-1.0504,-1.0556,0,0,0,0,0,-1.098,-1.0942,-1.0889,-1.0849,-1.0829,-1.0787,-1.0762,-1.0742,-1.0698,-1.0681,-1.0642,-1.0599,-1.0554,-1.0525,-1.0481,-1.0426,-1.0411,-1.0404,-1.0402,-1.0401,-1.0396,-1.0362,-1.0358,-1.0407,-1.0407,-1.0407,0,0,-1.0976,-1.0938,-1.0916,-1.0852,-1.0819,-1.0778,-1.0773,-1.0731,-1.0699,-1.0674,-1.062,-1.059,-1.0539,-1.0484,-1.0457,-1.0458,-1.0379,-1.0398,-1.0397,-1.0393,-1.0359,-1.0355,-1.035,-1.0406,-1.0406,-1.0406,0,0,-1.0949,-1.0918,-1.088,-1.0846,-1.0797,-1.0769,-1.076,-1.0706,-1.0685,-1.0631,-1.061,-1.0571,-1.0495,-1.0459,-1.0431,-1.0389,-1.0374,-1.0376,-1.0366,-1.0334,-1.033,-1.0326,-1.0309,-1.0303,-1.0372,-1.0372,-1.0372,0,-1.0951,-1.0891,-1.0861,-1.0819,-1.0791,-1.0767,-1.0727,-1.0695,-1.0633,-1.0613,-1.0615,-1.0518,-1.0482,-1.0417,-1.0407,-1.0385,-1.0372,-1.0382,-1.0333,-1.0329,-1.0325,-1.0308,-1.0302,-1.0372,-1.0372,-1.0372,-1.0372,0,-1.0894,-1.0853,-1.0827,-1.0769,-1.0738,-1.0697,-1.0659,-1.063,-1.0612,-1.0584,-1.0527,-1.0483,-1.0429,-1.0412,-1.0394,-1.0343,-1.0345,-1.0341,-1.0345,-1.0321,-1.0305,-1.0298,-1.0372,-1.0372,-1.0372,-1.0372,0,0,-1.0877,-1.0803,-1.0794,-1.0766,-1.0709,-1.0675,-1.0633,-1.0581,-1.0556,-1.0514,-1.0475,-1.0411,-1.0406,-1.0374,-1.0351,-1.0323,-1.029,-1.0322,-1.032,-1.0316,-1.0229,-1.0231,-1.0224,-1.0281,-1.028,-1.0279,-1.0232,0,-1.0842,-1.0766,-1.0737,-1.0674,-1.0634,-1.0611,-1.0573,-1.0532,-1.0504,-1.0464,-1.0432,-1.0386,-1.0385,-1.0365,-1.0336,-1.0301,-1.0272,-1.0304,-1.0242,-1.024,-1.0254,-1.0216,-1.0219,-1.0177,-1.0226,-1.0225,-1.0224,0,-1.079,-1.0748,-1.0682,-1.0628,-1.061,-1.0577,-1.0526,-1.0489,-1.0442,-1.0423,-1.0387,-1.0366,-1.0318,-1.0326,-1.0257,-1.0279,-1.0252,-1.0231,-1.0228,-1.022,-1.0229,-1.0204,-1.0163,-1.0156,-1.0214,-1.0215,-1.0215,0,-1.0782,-1.0709,-1.0659,-1.0636,-1.0573,-1.055,-1.0522,-1.0476,-1.0446,-1.0401,-1.0381,-1.0331,-1.0302,-1.0263,-1.0228,-1.0238,-1.0162,-1.0167,-1.0142,-1.0143,-1.0126,-1.0127,-1.0078,-1.0112,-1.0112,-1.0112,-1.0112,0,-1.0744,-1.0704,-1.0654,-1.0623,-1.0576,-1.0543,-1.0497,-1.0467,-1.0426,-1.0387,-1.0364,-1.0328,-1.0285,-1.0242,-1.0215,-1.0161,-1.0149,-1.013,-1.0123,-1.0131,-1.0133,-1.0111,-1.0113,-1.0111,-1.0111,-1.0111,-1.0112,0,-1.0726,-1.0692,-1.0636,-1.0581,-1.0566,-1.0534,-1.0485,-1.0453,-1.0424,-1.0375,-1.0361,-1.0315,-1.0263,-1.0225,-1.0158,-1.0139,-1.0081,-1.0075,-1.0097,-1.0093,-1.007,-1.0071,-1.0003,-0.9991,-1.0036,-1.0035,-1.0035,0,-1.0704,-1.0672,-1.0614,-1.0587,-1.056,-1.0517,-1.0486,-1.0451,-1.042,-1.0363,-1.0337,-1.0285,-1.024,-1.0159,-1.0118,-1.0066,-1.0056,-1.0036,-1.0048,-1.0057,-1.0053,-1.0055,-1.005,-1.0034,-1.0033,-1.0033,-1.0033,0,-1.0666,-1.0651,-1.0609,-1.056,-1.0524,-1.0484,-1.0443,-1.0422,-1.0379,-1.0345,-1.0293,-1.0259,-1.0191,-1.0138,-1.0082,-1.005,-1.0033,-1.003,-1.0021,-1.0028,-1.0041,-1.0031,-1.009,-1.0031,-1.0031,-1.0031,-1.0032,-1.0032,-1.0644,-1.0614,-1.0568,-1.0521,-1.0487,-1.0449,-1.0415,-1.0382,-1.0339,-1.0281,-1.0263,-1.0208,-1.016,-1.0083,-1.0051,-1.0006,-1.0006,-0.9994,-0.9991,-0.9987,-0.9987,-1.0051,-0.9996,-0.9996,-0.9996,-0.9996,-0.9996,0,-1.0603,-1.0573,-1.053,-1.0474,-1.0436,-1.0426,-1.038,-1.0348,-1.0301,-1.0258,-1.0215,-1.0154,-1.0102,-1.0057,-1.0002,-0.9975,-0.9965,-0.9961,-0.9962,-0.9954,-0.9991,-1.0003,-0.997,-0.997,-0.997,-0.997,-0.997,-0.997,-1.0578,-1.0526,-1.0505,-1.0435,-1.0403,-1.0351,-1.0325,-1.0289,-1.0254,-1.0187,-1.0145,-1.0116,-1.0071,-1.0013,-0.9964,-0.9952,-0.9932,-0.9929,-0.9915,-0.9949,-0.9952,-0.9955,-0.9966,-0.9926,-0.9925,-0.9881,-0.9881,-0.9881]},{"header":{"parameterUnit":"m.s-1","parameterCategory":1,"la1":30.2991,"la2":30.254,"lo1":-89.0895,"lo2":-89.0444,"dy":0.0017,"dx":0.0017,"nx":28,"ny":28,"refTime":"2024-12-05T03:00:00:Z","depth":0,"parameterNumber":3,"parameterNumberName":"V-component_of_WINDS"},"data":[0,0,0,0,0,0,0,0,0,0,0,0,0,0,0,0,0,0,0,0,0,0,0,0,0,0,0,0,0,0,0,0,0,0,0,0,0,0,0,0,0,0,0,0,0,0,0,0,0,0,0,0,0,0,0,0,0,0,0.5471,0.5472,0,0.5526,0.5527,0.5527,0.5499,0.5497,0.5496,0.5494,0.5553,0.5556,0.5559,0,0,0,0,0,0,0,0,0,0,0,0,0,0.5342,0.5345,0.5471,0.5472,0.5472,0.5526,0.5527,0.5528,0.5499,0.5497,0.5495,0.5494,0.5552,0.5555,0.5559,0,0,0,0,0,0,0,0,0,0,0,0,0,0.5398,0.5346,0.5471,0.5464,0.5464,0.5526,0.5527,0.5528,0.5499,0.5497,0.5495,0.5493,0.5551,0.5555,0.5559,0.5631,0,0,0.5573,0.5575,0,0,0,0,0,0,0,0,0.5395,0.5403,0.5465,0.5465,0.5465,0.5503,0.5503,0.5562,0.55,0.5486,0.5494,0.5492,0.5538,0.5544,0.5559,0.5634,0.5636,0.5573,0.5576,0.5578,0.5579,0,0,0,0,0,0,0,0.5391,0.54,0.5493,0.5466,0.5466,0.5459,0.5465,0.5514,0.5524,0.5487,0.5485,0.5492,0.5538,0.5555,0.556,0.5637,0.5573,0.5577,0.558,0.5581,0.5775,0.5777,0,0,0,0,0,0,0.5387,0.5397,0.5491,0.5494,0.5424,0.5464,0.547,0.5493,0.5523,0.5526,0.5494,0.5491,0.5548,0.5555,0.5562,0.565,0.5578,0.5582,0.5584,0.5772,0.5775,0.5778,0,0,0,0,0,0,0.5385,0.5396,0.5489,0.5445,0.5457,0.5468,0.5495,0.5496,0.5512,0.5528,0.553,0.5509,0.5547,0.5556,0.5614,0.5651,0.5584,0.5588,0.5769,0.5773,0.5777,0.5824,0,0,0,0,0,0,0.5381,0.5395,0.5422,0.5446,0.5459,0.554,0.5497,0.5498,0.552,0.5516,0.5543,0.5546,0.5546,0.5608,0.5619,0.5656,0.5591,0.5766,0.5771,0.5776,0.582,0.5829,0.5837,0,0,0,0,0,0.5377,0.5433,0.5424,0.5435,0.5493,0.5542,0.555,0.5548,0.5523,0.5551,0.5561,0.5545,0.5645,0.5614,0.5626,0.5665,0.5764,0.577,0.5775,0.5816,0.5827,0.5837,0,0,0,0,0,0,0.5414,0.5436,0.5426,0.5492,0.5515,0.5537,0.5572,0.556,0.5592,0.5587,0.5584,0.559,0.5652,0.5663,0.5629,0.5737,0.57,0.5709,0.5727,0.5738,0.5747,0.5745,0.5595,0,0,0,0,0,0.543,0.5467,0.5485,0.5542,0.5554,0.5561,0.5582,0.5579,0.5603,0.5613,0.5628,0.5652,0.5689,0.5714,0.5749,0.582,0.5827,0.5853,0.5862,0.5869,0.5877,0.5918,0.5931,0.5797,0.5796,0.5796,0,0,0.5464,0.548,0.5504,0.555,0.5567,0.5607,0.5569,0.5613,0.5643,0.562,0.5677,0.5688,0.5715,0.5781,0.5811,0.5793,0.5915,0.5876,0.5882,0.5886,0.5925,0.5938,0.5949,0.58,0.58,0.5799,0,0,0.5546,0.5561,0.5611,0.5629,0.5656,0.566,0.5672,0.5696,0.5703,0.5759,0.5743,0.5778,0.5842,0.5862,0.5881,0.5971,0.5958,0.5982,0.603,0.607,0.608,0.609,0.6124,0.6136,0.5989,0.5989,0.5989,0,0.5585,0.5643,0.5638,0.5683,0.5705,0.5684,0.5735,0.5753,0.5791,0.5806,0.5785,0.5865,0.5882,0.5953,0.5975,0.599,0.6005,0.598,0.6079,0.6088,0.6097,0.613,0.6143,0.5992,0.5992,0.5992,0.5991,0,0.5691,0.5732,0.5769,0.5805,0.583,0.5878,0.5881,0.5907,0.59,0.5907,0.5966,0.5985,0.6024,0.604,0.6034,0.6111,0.61,0.6079,0.6043,0.6113,0.6144,0.6156,0.5996,0.5995,0.5995,0.5994,0,0,0.5801,0.5833,0.5847,0.5864,0.5891,0.5924,0.597,0.6008,0.6032,0.6057,0.6098,0.6152,0.6133,0.6154,0.6151,0.6185,0.6258,0.616,0.6161,0.6181,0.6346,0.6364,0.6379,0.6248,0.625,0.6252,0.6345,0,0.5887,0.597,0.5966,0.6043,0.6082,0.6063,0.6104,0.6126,0.6133,0.6168,0.6175,0.6215,0.6185,0.6199,0.6231,0.6242,0.6292,0.6235,0.6289,0.6291,0.6286,0.6395,0.6414,0.65,0.6357,0.6359,0.636,0,0.6,0.6029,0.6111,0.6133,0.6149,0.6187,0.6222,0.6254,0.6279,0.6281,0.6305,0.6296,0.6345,0.6305,0.6374,0.6335,0.6356,0.6365,0.6368,0.6376,0.6332,0.6408,0.6528,0.6542,0.6379,0.6377,0.6376,0,0.6076,0.6135,0.6192,0.6206,0.6234,0.6261,0.6273,0.6295,0.6319,0.6349,0.6364,0.64,0.642,0.6448,0.6449,0.642,0.6519,0.6479,0.6525,0.6526,0.655,0.6549,0.6678,0.6558,0.6558,0.6558,0.6557,0,0.6174,0.6226,0.6227,0.6262,0.6319,0.6314,0.6371,0.6381,0.6401,0.6439,0.6423,0.6459,0.6457,0.6493,0.6494,0.6552,0.6561,0.6566,0.6566,0.657,0.6569,0.6586,0.6581,0.6561,0.656,0.656,0.6559,0,0.627,0.6273,0.6334,0.6354,0.636,0.6402,0.642,0.6454,0.6459,0.6507,0.6518,0.6526,0.6569,0.6572,0.662,0.6621,0.6693,0.6684,0.6685,0.6685,0.6732,0.6729,0.6879,0.6899,0.6763,0.6764,0.6765,0,0.6335,0.6374,0.6398,0.6422,0.6436,0.6475,0.6498,0.6494,0.652,0.6551,0.6582,0.6622,0.6655,0.6724,0.6735,0.6773,0.6768,0.6817,0.6773,0.6776,0.6772,0.6772,0.6777,0.6827,0.6829,0.683,0.6831,0,0.6451,0.645,0.6484,0.6519,0.6547,0.6574,0.66,0.662,0.662,0.6649,0.6692,0.6717,0.6767,0.6809,0.6845,0.6859,0.6847,0.6844,0.6857,0.6863,0.6863,0.6867,0.6712,0.6842,0.684,0.684,0.6839,0.6839,0.6535,0.657,0.6593,0.6631,0.665,0.6674,0.6708,0.6716,0.6752,0.6792,0.6787,0.6835,0.6859,0.6907,0.6924,0.6963,0.6946,0.6964,0.697,0.6975,0.6982,0.6853,0.6969,0.6968,0.6968,0.6968,0.6968,0,0.6653,0.6666,0.6702,0.6738,0.6769,0.6751,0.6778,0.6806,0.6848,0.6871,0.6904,0.6954,0.6994,0.7008,0.7047,0.7075,0.707,0.7086,0.7086,0.709,0.6993,0.6979,0.7089,0.7089,0.7089,0.7089,0.7089,0.7089,0.6718,0.6776,0.6778,0.6845,0.6858,0.6905,0.6923,0.6945,0.6964,0.702,0.7053,0.7061,0.7081,0.7122,0.7158,0.7161,0.7178,0.7197,0.7198,0.7108,0.7096,0.7085,0.7072,0.72,0.72,0.7292,0.7293,0.7294]}]]